Home   Weather   Greeley   Past weeks

Flag for USA Past Weather in Greeley, Colorado, USA — Yesterday and Last 2 Weeks

Now
70 °F

Sunny.


Feels Like: 70 °F
Forecast: 55 / 80 °F
Wind: 3 mph from West

Location: Greeley / Weld

Current Time: Aug 30, 2016 at 11:17:38 AM

Latest Report: Aug 30, 2016 at 10:35 AM


Visibility: 10 mi

Pressure: 30.34 "Hg (25.71 "Hg at 1424m altitude)

Humidity: 53%

Dew Point: 52 °F

Location of GreeleyLocation

Past Weather in Greeley — Graph

°F

Greeley Temperature Yesterday

Maximum temperature yesterday: 88 °F (at 2:35 PM)
Minimum temperature yesterday: 57 °F (at 6:35 AM)
Average temperature yesterday: 67 °F

High & Low Weather Summary for the Past Weeks

 TemperatureHumidityPressure
High91 °F (Aug 15, 12:55 PM)100% (Aug 20, 6:55 AM)30.36 "Hg (Aug 20, 6:55 AM)
Low45 °F (Aug 25, 5:55 AM)14% (Aug 23, 4:35 PM)29.90 "Hg (Aug 22, 3:35 PM)
Average66 °F58%30.14 "Hg
* Reported Aug 15 10:15 AM — Aug 30 10:15 AM, Greeley, Weather by CustomWeather, © 2016

Note: Actual official high and low records may vary slightly from our data, if they occured in-between our weather recording intervals... More about our weather records

Advertising

Greeley Weather History for the Previous 24 Hours

Scroll right to see more
 ConditionsComfort  
Time TempWeatherWind HumidityBarometerVisibility
10:15 AM
Tue, Aug 30
70 °FSunny.5 mph53%30.34 "Hg10 mi
9:55 AM68 °FSunny.3 mph56%30.34 "Hg10 mi
9:35 AM66 °FSunny.5 mph64%30.33 "Hg10 mi
9:15 AM66 °FPassing clouds.3 mph64%30.33 "Hg10 mi
8:55 AM64 °FPartly sunny.No wind68%30.33 "Hg10 mi
8:35 AM63 °FPartly sunny.No wind73%30.33 "Hg10 mi
8:15 AM59 °FPartly sunny.No wind82%30.33 "Hg10 mi
7:55 AM59 °FPartly sunny.No wind82%30.33 "Hg10 mi
7:35 AM57 °FPartly sunny.No wind88%30.33 "Hg10 mi
7:15 AM57 °FPassing clouds.No wind88%30.33 "Hg10 mi
6:55 AM55 °FClear.No wind88%30.32 "Hg10 mi
6:35 AM55 °FClear.5 mph88%30.32 "Hg10 mi
6:15 AM55 °FClear.No wind88%30.32 "Hg10 mi
5:55 AM55 °FClear.5 mph94%30.32 "Hg10 mi
5:35 AM57 °FClear.No wind88%30.32 "Hg10 mi
5:15 AM57 °FClear.No wind88%30.31 "Hg10 mi
4:55 AM57 °FClear.No wind88%30.31 "Hg10 mi
4:35 AM57 °FPassing clouds.No wind88%30.32 "Hg10 mi
4:15 AM57 °FPartly cloudy.No wind94%30.32 "Hg10 mi
3:55 AM57 °FPassing clouds.No wind94%30.31 "Hg10 mi
3:35 AM57 °FPassing clouds.No wind88%30.32 "Hg10 mi
3:15 AM57 °FPassing clouds.No wind94%30.32 "Hg10 mi
2:55 AM59 °FClear.No wind88%30.32 "Hg10 mi
2:35 AM59 °FClear.No wind88%30.32 "Hg10 mi
2:15 AM57 °FClear.No wind94%30.32 "Hg10 mi
1:55 AM57 °FClear.No wind88%30.31 "Hg10 mi
1:35 AM57 °FClear.3 mph88%30.31 "Hg10 mi
1:15 AM59 °FClear.No wind88%30.32 "Hg10 mi
12:55 AM61 °FClear.No wind77%30.32 "Hg10 mi
12:35 AM61 °FClear.No wind77%30.32 "Hg10 mi
12:15 AM61 °FPassing clouds.5 mph77%30.32 "Hg10 mi
11:55 PM
Mon, Aug 29
61 °FPassing clouds.5 mph83%30.33 "Hg10 mi
11:35 PM61 °FClear.No wind77%30.33 "Hg10 mi
11:15 PM61 °FClear.6 mph77%30.31 "Hg10 mi
10:55 PM63 °FClear.6 mph73%30.31 "Hg10 mi
10:35 PM63 °FClear.8 mph73%30.31 "Hg10 mi
10:15 PM63 °FClear.7 mph77%30.32 "Hg10 mi
9:55 PM63 °FClear.6 mph77%30.33 "Hg10 mi
9:35 PM63 °FClear.6 mph73%30.34 "Hg10 mi
9:15 PM63 °FClear.5 mph77%30.36 "Hg10 mi
8:55 PM64 °FPartly cloudy.No wind73%30.35 "Hg10 mi
8:35 PM63 °FPassing clouds.6 mph77%30.35 "Hg10 mi
8:15 PM63 °FBroken clouds.9 mph77%30.34 "Hg10 mi
7:55 PM63 °FScattered clouds.7 mph77%30.31 "Hg10 mi
7:35 PM63 °FSunny.8 mph77%30.30 "Hg10 mi
7:15 PM64 °FPassing clouds.6 mph73%30.30 "Hg10 mi
6:55 PM64 °FPartly sunny.12 mph68%30.29 "Hg10 mi
6:35 PM64 °FOvercast.8 mph68%30.30 "Hg10 mi
6:15 PM64 °FPartly sunny.9 mph64%30.29 "Hg10 mi
5:55 PM64 °FPartly sunny.9 mph68%30.28 "Hg10 mi
5:35 PM64 °FThundershowers. Overcast.14 mph64%30.27 "Hg10 mi
5:15 PM66 °FThunderstorms. Overcast.8 mph68%30.28 "Hg10 mi
4:55 PM64 °FThunderstorms. Broken clouds.9 mph73%30.28 "Hg10 mi
4:35 PM66 °FThunderstorms. Cloudy.No wind60%30.29 "Hg5 mi
4:15 PM68 °FThunderstorms. Broken clouds.9 mph56%30.28 "Hg10 mi
3:55 PM66 °FThunderstorms. Broken clouds.16 mph56%30.27 "Hg10 mi
3:35 PM68 °FThunderstorms. Broken clouds.23 mph56%30.28 "Hg10 mi
3:15 PM77 °FThunderstorms. Cloudy.9 mph44%30.26 "Hg10 mi
2:55 PM82 °FThundershowers. Partly sunny.8 mph30%30.25 "Hg10 mi
2:35 PM88 °FScattered clouds.13 mph24%30.24 "Hg10 mi
2:15 PM86 °FPassing clouds.8 mph25%30.25 "Hg10 mi
1:55 PM84 °FSunny.No wind27%30.25 "Hg7 mi
1:35 PM84 °FSunny.No wind27%30.26 "Hg10 mi
1:15 PM84 °FSunny.5 mph27%30.26 "Hg8 mi
12:55 PM84 °FSunny.6 mph27%30.27 "Hg4 mi
12:35 PM84 °FSunny.6 mph29%30.27 "Hg10 mi
12:15 PM81 °FSunny.3 mph32%30.28 "Hg10 mi
11:55 AM81 °FSunny.No wind37%30.29 "Hg10 mi
11:35 AM79 °FSunny.5 mph39%30.30 "Hg10 mi
11:15 AM79 °FSunny.5 mph42%30.30 "Hg10 mi
Weather by CustomWeather, © 2016

See weather overviewHow to use our weather pages